www.pogodaiklimat.ru

Погода и климат >> Архив погоды >> Япония >> Токио


АРХИВ ПОГОДЫ в Токио

Время (UTC), дата Ветер
(напр.,м/с)
 
Видим.   Явления Облачность Т
(С)
Тd
(С)
f
(%)
Тe
(С)
Тes
(С)
Комфортность P
(гПа)
Po
(гПа)
Тmin
(С)
Tmax
(С)
R
(мм)
R24
(мм)
S
(см)
04 16.05 В 3 н/о н/о +23.7 +11.4 46 +25 +25 комфорт 1015.1 1012.3
05 16.05 Ю 3 н/о н/о +23.9 +12.6 49 +26 +26 жарко 1014.9 1012.1
06 16.05 Ю 5 20 км {ливн. осадки} 8/6
[Cu med, cong Ci fib]
+23.4 +13.0 52 +26 +28 жарко 1014.9 1012.1 0.0
07 16.05 Ю 5 н/о н/о +23.2 +11.9 49 +26 +26 жарко 1014.9 1012.1
08 16.05 ЮВ 5 н/о н/о +22.3 +12.0 52 +25 +25 комфорт 1015.1 1012.3
09 16.05 ЮВ 5 20 км 3/1
[Cu med, cong Ci fib]
+20.8 +13.0 61 +23 +23 комфорт 1015.5 1012.7
10 16.05 ЮВ 6 н/о н/о +20.0 +13.9 68 +22 +22 комфорт 1016.5 1013.7
11 16.05 Ю 4 н/о н/о +19.4 +14.0 71 +21 +21 комфорт 1017.4 1014.6
12 16.05 ЮВ 2 20 км 3/3
[Cu Sc]
+18.4 +14.5 78 +19 +19 тепло 1018.5 1015.6 +24.6 0.0
13 16.05 ЮВ 2 н/о н/о +18.5 +14.6 78 +20 +20 тепло 1018.5 1015.6
14 16.05 ЮВ 2 н/о н/о +17.3 +14.6 84 +18 +18 тепло 1018.3 1015.4
15 16.05 ЮВ 2 н/о н/о +16.8 +14.5 86 +17 +17 по сезону 1017.8 1014.9
16 16.05 В 1 н/о н/о +16.3 +14.7 90 +18 +18 тепло 1017.9 1015.0
17 16.05 В 2 н/о н/о +17.0 +14.1 83 +17 +17 тепло 1017.7 1014.8
18 16.05 В 1 20 км 3/3
[Cu Sc]
+16.0 +14.5 91 +17 +17 по сезону 1018.0 1015.1
19 16.05 СВ 2 н/о н/о +15.6 +14.5 93 +16 +16 по сезону 1018.3 1015.4
20 16.05 СВ 2 н/о н/о +15.7 +14.8 94 +16 +16 по сезону 1018.9 1016.0
21 16.05 СВ 1 20 км 1/1
[Cu med, cong]
+17.8 +15.1 84 +19 +20 тепло 1019.7 1016.8
22 16.05 СВ 2 н/о н/о +19.8 +14.6 72 +23 +23 комфорт 1020.0 1017.1
23 16.05 СВ 2 н/о н/о +20.6 +13.8 65 +24 +24 комфорт 1020.1 1017.3
00 17.05 ЮВ 2 25 км 6/6
[Cu med, cong]
+21.8 +12.6 56 +24 +30 комфорт 1020.1 1017.3 +15.3
01 17.05 СВ 3 н/о н/о +22.0 +12.8 56 +25 +25 комфорт 1020.4 1017.6
02 17.05 Ю 2 н/о н/о +23.7 +14.7 57 +26 +26 жарко 1020.2 1017.4
03 17.05 ЮВ 3 25 км 6/6
[Cu med, cong]
+24.6 +12.9 48 +27 +33 жарко 1019.7 1016.9
04 17.05 Ю 5 н/о н/о +23.8 +13.1 51 +26 +26 жарко 1019.4 1016.6
05 17.05 ЮВ 5 н/о н/о +23.7 +12.7 50 +26 +26 жарко 1019.3 1016.5
06 17.05 ЮВ 5 20 км 3/1
[Cu med, cong Ci fib]
+23.9 +11.6 46 +25 +30 комфорт 1019.3 1016.5
08 17.05 ЮВ 4 н/о н/о +22.5 +8.6 41 +24 +24 комфорт 1019.6 1016.8
09 17.05 ЮВ 6 20 км 1/1
[Cu hum Ac trans Ci fib]
+21.0 +12.2 57 +23 +23 комфорт 1019.9 1017.1
10 17.05 ЮВ 4 н/о н/о +19.8 +14.0 69 +22 +22 комфорт 1020.7 1017.8
11 17.05 ЮВ 5 н/о н/о +19.3 +13.7 70 +21 +21 комфорт 1021.6 1018.7
12 17.05 ЮВ 3 20 км 1/1
[Cu hum]
+18.8 +14.5 76 +20 +20 тепло 1022.3 1019.4 +25.9
13 17.05 ЮВ 2 н/о н/о +18.3 +14.2 77 +19 +19 тепло 1022.6 1019.7
14 17.05 Ю 3 н/о н/о +18.0 +14.1 78 +18 +18 по сезону 1022.5 1019.6
15 17.05 ЮВ 3 н/о н/о +17.4 +14.1 81 +18 +18 по сезону 1022.5 1019.6
16 17.05 ЮВ 3 н/о н/о +17.4 +13.9 80 +17 +17 тепло 1022.3 1019.4
17 17.05 ЮВ 3 н/о н/о +17.7 +14.0 79 +18 +18 тепло 1022.2 1019.3
18 17.05 ЮВ 2 20 км 8/4
[Cu Sc Ci sp]
+16.3 +14.3 88 +16 +16 по сезону 1022.6 1019.7
19 17.05 Ю 1 н/о н/о +15.8 +14.3 91 +17 +17 по сезону 1022.8 1019.9
20 17.05 В 2 н/о н/о +16.7 +14.7 88 +17 +17 по сезону 1023.2 1020.3
21 17.05 В 2 20 км 9/3
[Cu Sc Ac trans Ci sp]
+18.6 +14.7 78 +20 +20 тепло 1023.4 1020.5
22 17.05 ЮВ 3 н/о н/о +20.1 +14.5 70 +23 +23 комфорт 1023.5 1020.6
23 17.05 Ю 5 н/о н/о +21.1 +14.0 64 +24 +24 комфорт 1023.5 1020.7
00 18.05 ЮВ 3 20 км 8/5
[Cu med, cong Ac trans Ci sp]
+21.9 +14.6 63 +25 +29 комфорт 1023.8 1021.0 +15.6
01 18.05 Ю 4 н/о н/о +22.6 +13.4 56 +26 +26 жарко 1024.1 1021.3
02 18.05 ЮВ 5 н/о н/о +24.1 +13.4 51 +26 +26 жарко 1023.4 1020.6
03 18.05 ЮВ 3 20 км 9/1
[Cu med, cong Ci sp]
+23.8 +12.1 48 +26 +38 жарко 1023.0 1020.2
04 18.05 ЮВ 4 н/о н/о +24.4 +12.7 48 +26 +26 жарко 1022.7 1019.9
05 18.05 ЮВ 5 н/о н/о +22.6 +13.1 55 +26 +26 жарко 1022.4 1019.6
06 18.05 В 6 20 км {ливн. осадки} 9/3
[Cu med, cong Ci sp]
+22.8 +12.7 53 +26 +28 жарко 1021.8 1019.0 0.0
07 18.05 ЮВ 5 н/о н/о +22.3 +13.4 57 +25 +25 комфорт 1021.7 1018.9
08 18.05 ЮВ 5 н/о н/о +21.6 +13.0 58 +24 +24 комфорт 1022.1 1019.3
09 18.05 ЮВ 5 20 км 9/3
[Cu med, cong Ci sp]
+20.8 +12.8 60 +23 +23 комфорт 1022.6 1019.8
10 18.05 ЮВ 4 н/о н/о +19.9 +12.4 62 +22 +22 комфорт 1023.3 1020.4
11 18.05 Ю 4 н/о н/о +19.5 +12.8 65 +21 +21 комфорт 1024.0 1021.1
12 18.05 ЮВ 4 20 км 9/3
[Cu Sc Ac trans Ci sp]
+19.4 +13.1 67 +21 +21 комфорт 1024.3 1021.4 +25.6 0.0
13 18.05 ЮВ 3 н/о н/о +19.3 +13.5 69 +21 +21 комфорт 1024.3 1021.4
14 18.05 ЮВ 4 н/о н/о +19.2 +13.8 71 +21 +21 комфорт 1024.5 1021.6
15 18.05 Ю 3 н/о н/о +19.2 +14.0 72 +21 +21 комфорт 1024.2 1021.3
16 18.05 ЮВ 4 н/о н/о +18.6 +13.9 74 +19 +19 тепло 1023.7 1020.8
17 18.05 ЮВ 4 н/о н/о +18.6 +13.3 71 +19 +19 тепло 1023.5 1020.6
18 18.05 ЮВ 4 20 км 9/3
[Cu Sc Ac As]
+18.5 +13.4 72 +19 +19 тепло 1023.3 1020.4
19 18.05 ЮВ 2 н/о н/о +18.0 +13.5 75 +19 +19 тепло 1023.6 1020.7
20 18.05 ЮВ 2 н/о н/о +18.6 +13.5 72 +20 +20 тепло 1023.7 1020.8
21 18.05 ЮВ 3 20 км 9/3
[Sc Ac As]
+18.9 +13.8 72 +20 +20 тепло 1023.6 1020.7
22 18.05 ЮВ 3 н/о н/о +19.5 +13.9 70 +21 +21 комфорт 1023.9 1021.0
23 18.05 Ю 3 н/о н/о +20.5 +13.7 65 +23 +23 комфорт 1023.9 1021.0
00 19.05 ЮВ 4 25 км 5/3
[Cu med, cong Ac trans Ci sp]
+22.0 +13.4 58 +25 +31 комфорт 1023.5 1020.7 +17.6
01 19.05 ЮВ 4 н/о н/о +23.1 +13.9 56 +27 +27 душно 1023.2 1020.4
02 19.05 ЮВ 5 н/о н/о +22.6 +12.8 54 +25 +25 комфорт 1023.0 1020.2
03 19.05 ЮВ 4 25 км 9/8
[Cu Sc Ac trans]
+24.3 +14.4 54 +27 +29 жарко 1022.5 1019.7
04 19.05 ЮВ 4 н/о н/о +24.6 +14.1 52 +27 +27 жарко 1021.6 1018.8
05 19.05 Ю 5 н/о н/о +23.3 +13.2 53 +26 +26 жарко 1021.3 1018.5
06 19.05 Ю 4 25 км 9/8
[Cu Sc Ac trans]
+22.4 +13.5 57 +25 +26 комфорт 1020.7 1017.9
07 19.05 ЮВ 5 н/о н/о +22.9 +12.8 53 +26 +26 жарко 1021.1 1018.3
08 19.05 Ю 6 н/о н/о +21.4 +12.8 58 +24 +24 комфорт 1021.2 1018.4
09 19.05 Ю 4 20 км {ливн. осадки} 3/1
[Cu med, cong Ci sp]
+20.7 +13.4 63 +23 +24 комфорт 1021.1 1018.3
10 19.05 Ю 5 н/о н/о +19.8 +12.8 64 +21 +21 комфорт 1021.7 1018.8
11 19.05 ЮВ 5 н/о н/о +19.5 +13.0 66 +21 +21 комфорт 1022.0 1019.1
12 19.05 ЮВ 4 20 км {ливн. осадки} 9/1
[Cu hum Ac trans Ci sp]
+18.9 +13.3 70 +20 +20 тепло 1022.3 1019.4 +25.2 0.0
13 19.05 ЮВ 4 н/о н/о +18.8 +13.9 73 +20 +20 тепло 1022.4 1019.5
14 19.05 ЮВ 3 н/о н/о +18.3 +14.0 76 +19 +19 тепло 1021.8 1018.9
15 19.05 Ю 3 н/о н/о +18.1 +14.4 79 +19 +19 тепло 1021.2 1018.3
16 19.05 Ю 2 н/о н/о +17.4 +14.7 84 +18 +18 тепло 1020.6 1017.7
17 19.05 Ю 2 н/о н/о +17.5 +14.0 80 +18 +18 тепло 1020.1 1017.2
18 19.05 ЮВ 3 20 км 8/3
[Sc Ac trans]
+17.1 +14.0 82 +17 +17 по сезону 1019.8 1016.9
19 19.05 ЮВ 3 н/о н/о +17.7 +14.8 83 +18 +18 по сезону 1019.7 1016.8
20 19.05 ЮВ 3 н/о н/о +18.1 +15.4 84 +19 +19 тепло 1019.6 1016.7
21 19.05 ЮВ 2 15 км 9/3
[Cu Sc Ac trans Ci sp]
+18.5 +15.6 83 +20 +20 тепло 1019.8 1016.9
22 19.05 Ю 5 н/о н/о +19.9 +14.7 72 +22 +22 комфорт 1019.2 1016.4
23 19.05 ЮВ 6 н/о н/о +21.5 +15.4 68 +25 +25 комфорт 1018.4 1015.6
00 20.05 Ю 5 20 км 9/1
[Cu med, cong Ac trans Ci sp]
+22.0 +14.2 61 +25 +29 комфорт 1017.7 1014.9 +16.5
02 20.05 Ю 4 н/о н/о +24.4 +15.1 56 +27 +27 жарко 1016.9 1014.1
03 20.05 ЮВ 6 20 км 9/4
[Cu med, cong Ac As]
+22.1 +14.0 60 +25 +27 комфорт 1016.7 1013.9
04 20.05 ЮВ 5 н/о н/о +23.9 +14.9 57 +27 +27 жарко 1015.7 1012.9
05 20.05 ЮВ 5 н/о н/о +21.9 +15.0 65 +25 +25 комфорт 1014.9 1012.1
06 20.05 ЮВ 6 20 км {ливн. осадки} 9/6
[Cu med, cong Ac As]
+22.3 +15.2 64 +26 +27 жарко 1014.3 1011.5 0.0
07 20.05 ЮВ 7 н/о н/о +20.8 +15.8 73 +24 +24 комфорт 1014.3 1011.5
08 20.05 ЮВ 5 н/о н/о +21.8 +15.6 68 +25 +25 комфорт 1013.9 1011.1
09 20.05 ЮВ 6 20 км {ливн. осадки} 10/6
[Cu med, cong Ac As]
+21.3 +15.8 71 +25 +25 комфорт 1013.8 1011.0
10 20.05 Ю 5 н/о н/о +20.6 +16.0 75 +24 +24 комфорт 1013.9 1011.1
11 20.05 ЮВ 3 н/о н/о +20.3 +16.2 77 +24 +24 комфорт 1013.8 1011.0
12 20.05 ЮВ 5 15 км в посл. час ливневой дождь 10/8
[Cu med, cong Ac As]
+20.1 +16.6 80 +23 +23 комфорт 1013.3 1010.5 +25.0 0.0
13 20.05 ЮВ 5 н/о н/о +19.5 +17.3 87 +22 +22 комфорт 1012.3 1009.5
14 20.05 Ю 4 н/о н/о +19.6 +17.2 86 +22 +22 комфорт 1011.4 1008.6
15 20.05 Ю 6 н/о н/о +20.0 +17.2 84 +23 +23 комфорт 1010.5 1007.7
16 20.05 ЮВ 5 н/о н/о +19.1 +18.1 94 +21 +21 комфорт 1009.6 1006.8
17 20.05 ЮВ 6 н/о н/о +18.7 +18.5 99 +19 +19 тепло 1008.5 1005.7
18 20.05 ЮВ 6 4000 м слаб. ливневой дождь 10/10
[Cu med, cong]
+18.9 +18.6 98 +20 +20 тепло 1006.9 1004.1 3
19 20.05 ЮВ 5 н/о н/о +19.1 +18.8 98 +21 +21 комфорт 1006.5 1003.7
20 20.05 ЮВ 5 н/о н/о +19.0 +19.0 100 +21 +21 комфорт 1005.3 1002.5
21 20.05 ЮВ 4 3000 м ливневой дождь 10/10
[Cu med, cong]
+19.1 +19.1 100 +21 +21 комфорт 1004.8 1002.0
22 20.05 ЮВ 5 н/о н/о +19.4 +19.4 100 +22 +22 комфорт 1003.9 1001.1
23 20.05 ЮВ 6 н/о н/о +19.6 +19.6 100 +22 +22 комфорт 1002.5 999.7
00 21.05 ЮВ 7 4000 м слаб. ливневой дождь 10/10
[Cu med, cong]
+20.0 +20.0 100 +23 +23 комфорт 1001.5 998.7 +18.6 40
02 21.05 Ю 6 н/о н/о +20.4 +20.2 99 +24 +24 комфорт 1001.1 998.3
03 21.05 Ю 7 4000 м ливневой дождь 10/10
[Cu med, cong]
+20.5 +20.5 100 +25 +25 комфорт 1000.5 997.7
04 21.05 Ю 8 н/о н/о +20.8 +20.8 100 +25 +25 комфорт 1000.1 997.3
05 21.05 Ю 7 н/о н/о +21.0 +21.0 100 +26 +26 душно 1000.4 997.6
06 21.05 Ю 4 4000 м слаб. ливневой дождь 10/10 200 м
[Cu med, cong]
+21.3 +21.3 100 +27 +27 душно 1000.2 997.4 42
07 21.05 ЮЗ 4 н/о н/о +21.6 +21.1 97 +28 +28 очень
душно
1000.2 997.4
08 21.05 СЗ 3 н/о н/о +20.3 +20.3 100 +25 +25 комфорт 1000.3 997.5
09 21.05 С 1 8000 м в посл. час ливневой дождь 9/9 200 м
[Cu med, cong]
+20.2 +20.1 99 +25 +25 комфорт 1000.7 997.9
10 21.05 СЗ 3 н/о н/о +19.6 +19.6 100 +23 +23 комфорт 1001.4 998.6
11 21.05 С 2 н/о н/о +19.0 +18.7 98 +21 +21 комфорт 1002.2 999.4
12 21.05 С 2 10 км {ливн. осадки} 9/9
[Cu med, cong]
+18.1 +17.9 99 +19 +19 по сезону 1002.7 999.9 +21.9 42
13 21.05 СЗ 2 н/о н/о +17.2 +16.9 98 +17 +17 по сезону 1003.2 1000.4
14 21.05 С 2 н/о н/о +16.4 +16.1 98 +17 +17 по сезону 1003.4 1000.6
15 21.05 СВ 3 н/о н/о +16.7 +16.1 96 +17 +17 по сезону 1003.4 1000.6
16 21.05 СВ 2 н/о н/о +16.1 +16.0 99 +16 +16 по сезону 1003.6 1000.8
17 21.05 С 2 н/о н/о +15.7 +13.9 89 +16 +16 по сезону 1003.7 1000.8
18 21.05 СВ 1 20 км 4/1
[Cu Sc Ci sp]
+14.4 +13.5 94 +15 +15 по сезону 1004.0 1001.1
19 21.05 В 3 н/о н/о +14.6 +13.3 92 +14 +14 прохладно 1004.9 1002.0
20 21.05 СВ 3 н/о н/о +14.7 +13.6 93 +14 +14 прохладно 1005.4 1002.5
21 21.05 СВ 2 20 км 9/3
[Sc Ac trans Ci sp]
+15.6 +13.5 87 +15 +16 прохладно 1005.9 1003.0
22 21.05 СВ 2 н/о н/о +17.4 +13.1 76 +18 +18 прохладно 1006.4 1003.6
23 21.05 СВ 3 н/о н/о +18.4 +12.6 69 +19 +19 по сезону 1006.6 1003.8
00 22.05 В 3 25 км 8/3
[Sc Ci sp]
+20.1 +12.4 61 +22 +30 комфорт 1006.6 1003.8 +14.1
01 22.05 СВ 3 н/о н/о +22.0 +12.8 56 +25 +25 комфорт 1006.3 1003.5
02 22.05 СВ 3 н/о н/о +22.6 +12.8 54 +25 +25 комфорт 1005.9 1003.1
03 22.05 ЮВ 3 25 км 8/1
[Cu med, cong Ac trans Ci sp]
+24.3 +14.4 54 +27 +30 жарко 1005.4 1002.6
04 22.05 ЮВ 3 н/о н/о +23.9 +8.7 38 +25 +25 комфорт 1005.0 1002.2
05 22.05 В 3 н/о н/о +24.8 +10.7 41 +26 +26 жарко 1004.9 1002.1
06 22.05 В 3 25 км 9/1
[Cu hum Ac trans Ci sp]
+23.7 +6.5 33 +24 +28 комфорт 1004.5 1001.7
07 22.05 ЮВ 3 н/о н/о +24.1 +7.3 34 +24 +24 комфорт 1004.8 1002.0
08 22.05 ЮВ 3 н/о н/о +23.1 +6.8 35 +24 +24 комфорт 1005.3 1002.5
09 22.05 В 4 25 км 9/1
[Cu hum Ac trans Ci sp]
+21.1 +8.1 43 +22 +22 комфорт 1006.1 1003.3
10 22.05 СВ 3 н/о н/о +19.9 +7.0 43 +21 +21 комфорт 1006.8 1004.0
11 22.05 В 3 н/о н/о +19.0 +8.4 50 +20 +20 тепло 1007.7 1004.9
12 22.05 В 2 25 км 9/0
[Ci sp]
+18.7 +8.9 53 +20 +20 тепло 1008.7 1005.9 +25.2
13 22.05 СВ 2 н/о н/о +17.5 +7.6 52 +18 +18 по сезону 1008.7 1005.9
14 22.05 СВ 1 н/о н/о +17.0 +9.7 62 +18 +18 по сезону 1009.1 1006.2
15 22.05 СЗ 1 н/о н/о +16.8 +10.9 68 +18 +18 по сезону 1009.3 1006.4
16 22.05 С 2 н/о н/о +16.9 +11.4 70 +17 +17 по сезону 1009.1 1006.2
17 22.05 С 2 н/о н/о +17.3 +11.4 68 +18 +18 тепло 1009.1 1006.3
18 22.05 С 3 25 км 9/0
[Ac trans Cs]
+16.6 +10.9 69 +17 +17 по сезону 1009.3 1006.4
19 22.05 СЗ 3 н/о н/о +15.6 +10.8 73 +15 +15 прохладно 1009.5 1006.6
20 22.05 СЗ 3 н/о н/о +15.9 +10.2 69 +15 +15 прохладно 1009.8 1006.9
21 22.05 СЗ 3 15 км 6/1
[Cu Sc Ci sp]
+16.4 +9.6 64 +16 +17 прохладно 1010.2 1007.3
22 22.05 С 3 н/о н/о +18.4 +9.8 57 +19 +19 по сезону 1010.0 1007.2
23 22.05 С 3 н/о н/о +21.2 +10.7 51 +23 +23 комфорт 1009.9 1007.1
00 23.05 С 2 20 км 1/1
[Cu hum]
+22.3 +9.5 44 +24 +36 комфорт 1009.8 1007.0 +15.2
01 23.05 С 3 н/о н/о +23.5 +6.8 34 +24 +24 комфорт 1009.8 1007.0
02 23.05 В 2 н/о н/о +25.2 +8.7 35 +26 +26 жарко 1009.4 1006.6

 

Местоположение метеостанции Токио (Япония): широта 35.68 долгота 139.76 высота над уровнем моря 36 м.

В архиве по умолчанию представлена погода в Токио за последнюю неделю. Архивные данные за месяц целиком и за предыдущие месяцы, начиная с января 2011 года, Вы можете получить, выбрав интересующий диапазон дат из раскрывающегося списка и нажав кнопку "Ввод!".


*Определитесь, кто Вы:
робот инопланетянин человек

Внимание! Время в таблицах - всемирное. Для получения местного времени необходимо прибавить поправку, которая равна 9 ч.

Смотрите также архив погоды в соседних городах и на ближайших метеорологических станциях:

Погода в Иокогаме (Япония) (30 км)
Погода в Тибе (Япония) (32 км)
Погода в Кумугае (Япония) (62 км)
Погода в Чичибу (Япония) (71 км)
Погода в Кацууре (Япония) (77 км)
Погода в Татеяме (Япония) (78 км)
Погода в Аджиро (Япония) (92 км)
Погода на Озере Кавагучи (Япония) (93 км)
Погода в Уцуномии (Япония) (97 км)
Погода в Мисиме (Япония) (98 км)

Пояснения к столбцам:

Ветер - указаны скорость ветра в м/с - средняя за 10 мин, порывы в срок и между сроками (в фигурных скобках) и направление, откуда дует ветер: С - северный, СВ - северо-восточный, В - восточный, ЮВ - юго-восточный, Ю - южный, ЮЗ - юго-западный, З - западный, СЗ - северо-западный.
Видимость - горизонтальная дальность видимости в метрах или километрах. При видимости от 1 до 10 км при отсутствии осадков обычно наблюдается дымка, при ухудшении видимости до 1 км и менее - туман. В сухую погоду видимость может ухудшаться дымом, пылью или мглою.
Явления - указаны атмосферные явления, наблюдавшиеся в срок или в последний час перед сроком; фигурными скобками обозначены явления, наблюдавшиеся между сроками (за 1-3 часа до срока); квадратными скобками обозначены град или гололедные отложения с указанием их диаметра в мм.
Облачность - указаны через наклонную черту общая и нижняя облачность в баллах и высота нижней границы облаков в метрах; квадратными скобками обозначены формы облаков: Ci - перистые, Cs - перисто-слоистые, Cc - перисто-кучевые, Ac - высококучевые, As - высокослоистые, Sc - слоисто-кучевые, Ns - слоисто-дождевые, Cu - кучевые, Cb - кучево-дождевые. Подробнее классификацию облаков см. в Атласе облаков (PDF).
T - Температура воздуха - температура, измеренная на высоте 2 м над землей.
Td - Температура точки росы - температура, при понижении до которой содержащийся в воздухе водяной пар достигнет насыщения.
f - Относительная влажность воздуха - влажноcть воздуха, измеренная на высоте 2 м над землей.
Te - Эффективная температура - температура, которую ощущает одетый по сезону человек в тени. Характеристика душности погоды. При расчете учитывается влияние влажности воздуха и скорости ветра на теплоощущения человека.
Tes - Эффективная температура на солнце - температура, которую ощущает человек, с поправкой на солнечный нагрев. Характеристика знойности погоды. Зависит от высоты солнца над горизонтом, облачности и скорости ветра. Ночью, в пасмурную погоду, а также при ветре 12 м/с и более поправка равна нулю.
P - Атмосферное давление - приведенное к уровню моря атмосферное давление.
Po - Атмосферное давление - измеренное на уровне метеостанции атмосферное давление.
Tmin - Минимальная температура - минимум температуры воздуха на высоте 2 м над землей.
Tmax - Максимальная температура - максимум температуры воздуха на высоте 2 м над землей.
R - Количество осадков - Количество выпавших осадков за период времени, мм. При наведении курсора мыши на число - период времени, за который выпало указанное количество осадков.
R24 - Количество осадков - Количество выпавших осадков за 24 часа, мм.
S - Снежный покров - Высота снежного покрова, см. При наведении курсора мыши на число - состояние снежного покрова и степень покрытия местности в баллах.